Lid_Strength_Index
20 20 21 21 21 21 21 20 19 18 18 17 17 17 17 16 15 15 14 15 14 14
21 21 22 21 21 21 21 20 19 19 19 18 18 18 17 16 15 15 15 15 15 15
22 22 22 22 22 22 21 21 20 20 19 19 18 17 17 16 16 16 15 14 15 15
22 22 22 22 22 22 22 21 21 21 20 20 19 18 18 17 17 17 16 15 15 14
23 23 23 23 23 22 22 22 22 21 21 20 20 19 19 19 18 18 18 16 15 14
24 24 24 23 23 23 22 22 22 22 22 21 21 20 20 19 19 18 17 15 16 15
24 24 24 24 23 23 23 23 23 23 22 22 21 21 20 20 19 18 16 16 16 16
24 25 24 24 24 23 24 24 24 23 23 22 22 21 20 19 17 16 15 15 15 15
25 25 25 25 24 25 25 25 25 24 23 23 22 20 18 16 16 15 16 16 16 15
26 27 26 26 26 26 26 26 25 24 24 24 23 19 18 16 15 16 16 16 16 15
27 28 27 28 27 27 26 26 25 25 25 23 22 19 18 15 15 16 16 15 15 15
28 29 29 30 28 27 27 27 27 24 24 25 24 20 16 15 17 17 16 15 14 14
28 30 30 29 29 28 28 27 25 24 24 23 23 18 15 15 17 18 18 16 15 14
29 30 31 30 29 29 29 27 27 25 23 21 20 19 15 15 17 18 18 17 16 14